Location: *
(36.0770°S, 93.3953°E)
Time: 19:19:21
(UTC+00:00)

Daily predictions for brighter satellites

Satellite Brightness Start Highest point End
(mag) Time Altitude Azimuth Time Altitude Azimuth Time Altitude Azimuth
Cosmos 2123 Rocket 4.1 12:21:29 10° S 12:27:52 68° E 12:34:10 10° NNE
Cosmos 1354 Rocket 4.0 12:23:39 10° N 12:28:55 73° ENE 12:34:16 10° SSE
Cosmos 1943 Rocket 4.3 12:29:09 10° SW 12:33:50 29° WNW 12:38:30 10° NNW
H-2A R/B 4.4 12:34:15 10° S 12:37:51 39° WSW 12:41:25 10° NW
Envisat 3.0 12:33:35 10° SSE 12:38:44 74° ENE 12:43:50 10° N
BREEZE-M TANK 3.6 12:34:07 10° WSW 12:39:55 41° SSE 12:42:57 10° E
PSLV R/B 3.6 12:37:55 10° WSW 12:40:28 38° SSE 12:42:59 10° E
BREEZE-M DEB (TANK) 3.8 12:38:03 10° WSW 12:40:31 26° NW 12:42:30 10° NNE
Cosmos 1939 Rocket 4.1 12:39:39 10° SE 12:42:34 20° E 12:45:28 10° NE
Cosmos 1605 Rocket 4.0 12:39:19 10° N 12:45:26 81° E 12:51:41 10° S
GPS 2-04 Rocket1 2.6 12:45:09 10° WNW 12:48:33 53° NNE 12:51:52 11° E
YAOGAN 1 2.8 12:44:26 10° SSE 12:48:41 48° E 12:52:53 10° N
Meteor 2-10 Rocket 3.8 12:46:48 10° S 12:52:42 90° E 12:58:22 10° N
EO 1 Delta rocket 4.5 12:48:15 10° S 12:55:10 89° ENE 13:00:31 10° N
Cosmos 1842 Rocket 3.5 12:54:32 10° S 12:58:57 76° E 13:03:19 10° N
Cosmos 2221 2.6 12:57:35 10° S 13:01:55 55° E 13:06:08 10° NNE
Cosmos 2173 Rocket 4.4 12:57:12 10° NNE 13:02:45 38° E 13:08:22 10° SSE
EXPRESS MD2 3.6 13:01:29 10° SW 13:04:19 48° SE 13:07:40 17° ENE
Lacrosse 5 rocket 3.0 13:02:32 10° NNE 13:05:07 17° ENE 13:05:07 17° ENE
Cosmos 1076 Rocket 3.6 13:03:04 10° N 13:07:14 53° E 13:11:27 10° SSE
Cosmos 2082 Rocket 4.0 13:10:28 12° E 13:10:28 12° E 13:11:30 10° ESE
DELTA 2 R/B (1) 3.9 13:03:37 10° W 13:09:15 66° S 13:14:48 10° ESE
CSL-04 Rocket 3.7 13:04:48 10° SSE 13:10:24 76° ENE 13:15:59 10° N
Cosmos 2058 3.3 13:07:25 10° NNE 13:11:19 40° E 13:15:15 10° SSE
FengYun 1-2 T 4.5 13:05:54 10° S 13:11:38 78° WSW 13:17:19 10° NNW
CZ-4C R/B 3.0 13:03:29 10° NNW 13:11:47 81° ENE 13:19:09 10° SE
Hubble Space Telescope 3.0 13:12:02 10° NNE 13:12:09 10° NNE 13:12:09 10° NNE
Cosmos 1802 Rocket 4.5 13:08:06 10° NNE 13:13:50 39° E 13:19:32 10° SSE
Intercosmos 25 Rocket 3.8 13:11:10 10° S 13:14:54 56° E 13:20:25 10° NNE
CZ-4 R/B 2.2 13:11:11 10° S 13:15:07 55° WSW 13:19:06 10° NNW
DMSP B5D2-2 4.1 13:14:19 10° NNE 13:19:29 68° ESE 13:24:44 10° S
Ariane Rocket 3.3 13:16:25 10° SSE 13:21:20 44° E 13:26:11 10° N
ISS -0.8 13:23:50 10° WSW 13:26:09 17° SSW 13:28:30 10° SSE
Cosmos 2151 3.9 13:26:14 28° ENE 13:26:49 29° E 13:30:33 10° SSE
Meteor 1-27 4.3 13:21:19 10° S 13:27:05 81° W 13:32:42 10° N
COSMOS 2406 3.1 13:21:59 10° NNW 13:27:38 72° ENE 13:33:20 10° SSE
NOAA 11 4.1 13:24:28 10° SSE 13:30:03 72° ENE 13:35:32 10° N
Aureole 2 Rocket 3.6 13:28:08 10° SW 13:30:37 30° WNW 13:32:23 15° NNW
Cosmos 2100 Rocket 3.9 13:25:09 10° N 13:31:18 74° E 13:37:36 10° S
In-Cosmos 22 Rocket 4.4 13:26:24 10° NNE 13:31:59 52° E 13:37:41 10° SSE
TSX-5 4.4 13:29:10 10° SSW 13:34:03 62° WNW 13:36:33 21° N
ATLAS CENTAUR R/B 4.5 13:20:59 10° NW 13:38:39 65° SW 13:44:47 10° SSE
Meteor 2-20 Rocket 4.4 13:35:57 10° S 13:42:09 75° E 13:46:30 20° NNE
USA 229 DEB 3.6 13:37:25 10° SSW 13:44:16 77° ESE 13:47:42 31° NE
USA 229 3.6 13:37:27 10° SSW 13:44:20 75° ESE 13:47:46 31° NE
CZ-2C R/B 2.5 13:43:56 27° NNE 13:46:48 75° ESE 13:52:02 10° S
HJ-1C 3.4 13:44:03 10° S 13:47:31 81° WSW 13:49:08 29° NNW
Cosmos 2016 Rocket 4.0 13:41:53 11° N 13:47:53 63° E 13:54:13 10° SSE
MTI 4.5 13:49:03 41° SE 13:49:03 41° SE 13:51:35 10° S
BREEZE-M R/B 3.4 13:44:46 10° WNW 13:48:43 60° SSW 13:54:34 10° SE
Cosmos 1356 Rocket 3.4 13:45:07 10° S 13:49:12 53° E 13:49:32 52° E
MOS 1 4.4 13:44:29 10° SSE 13:50:07 52° E 13:53:03 27° NNE
NOSS 3-1 (A) 3.7 13:44:22 10° SSW 13:50:23 46° SE 13:52:08 35° E
USA 215 3.4 13:49:12 10° SE 13:55:34 49° NE 14:01:52 10° NNW
SL-08 R/B 4.5 13:52:38 25° NNE 13:56:16 61° E 14:02:29 10° SSE
Cosmos 1656 4.1 13:54:21 10° S 13:59:53 47° ESE 14:00:58 42° E
IRS-1A Rocket 4.2 13:56:48 10° SSE 14:02:37 89° ENE 14:08:14 10° NNW
NOSS 3-1 (C) 3.2 13:58:42 10° SSW 14:04:52 86° WNW 14:06:34 47° NNE
Cosmos 773 Rocket 4.0 14:00:16 10° SSW 14:05:32 77° WNW 14:07:18 42° N
CZ-3B R/B 4.3 13:32:01 10° WNW 14:07:18 55° NNW 14:11:53 36° NE
SJ-11-01 4.2 14:03:04 10° SSE 14:07:54 79° ENE 14:09:05 51° N
SPOT 3 Rocket 3.9 14:05:24 10° SSE 14:09:46 45° ESE 14:09:46 45° ESE
Genesis I 4.0 14:08:40 10° SSW 14:11:48 44° SSE 14:11:48 44° SSE
Cosmos 1833 Rocket 2.6 14:13:54 10° NNW 14:19:34 89° WSW 14:25:18 10° SSE
Cosmos 1980 Rocket 3.7 14:16:02 10° S 14:20:04 22° SE 14:20:04 22° SE
Cosmos 1680 Rocket 4.4 14:16:52 10° S 14:21:09 34° SE 14:21:09 34° SE
Cosmos 2061 Rocket 4.4 14:19:02 10° NNW 14:25:10 61° W 14:31:28 10° S
Cosmos 1151 Rocket 4.0 14:21:31 10° S 14:24:24 38° SSE 14:24:24 38° SSE
H-2A R/B 2.3 14:20:55 10° SSE 14:24:57 52° SE 14:24:57 52° SE
Haruka 4.2 14:18:46 10° W 14:26:51 32° NNW 14:27:13 31° NNW
GPS 2-04 Rocket1 4.3 14:24:24 10° W 14:26:09 27° W 14:26:09 27° W
Atlas 2A Centaur Rocket 3.9 14:05:23 10° W 14:29:45 49° NNW 14:31:03 45° NNE
Cosmos 1892 4.0 14:31:17 38° W 14:31:22 38° W 14:35:00 10° S
NOSS 2-3 (C) 4.2 14:28:18 10° SSW 14:34:50 69° SE 14:34:51 69° ESE
Cosmos 923 Rocket 4.2 14:30:52 10° SSW 14:35:41 61° SE 14:35:41 61° SE
USA 186 4.2 14:36:43 10° S 14:38:46 25° SW 14:38:46 25° SW
Tsikada Rocket 3.8 14:34:30 10° S 14:40:46 90° ESE 14:41:20 76° N
Lacrosse 4 Rocket 3.4 14:37:25 10° S 14:39:45 23° SSE 14:39:45 23° SSE
Lacrosse 5 rocket 3.5 14:39:39 10° NW 14:50:31 - SE 14:41:15 21° WNW
Cosmos 1328 Rocket 4.5 14:40:08 10° S 14:43:16 45° SSW 14:43:16 45° SSW
Thor Agena Rocket 3.8 14:47:13 65° SSW 14:47:13 65° SSW 14:51:34 10° SSW
H-2A ROCKET BODY 4.0 14:41:38 10° W 14:48:25 20° NW 14:48:35 20° NW
Cosmos 2082 Rocket 2.3 14:52:09 69° W 14:52:21 70° WSW 14:58:00 10° SSE
DELTA 2 R/B (1) 3.9 14:50:27 10° WSW 14:55:34 63° SSW 14:55:34 63° SSW
ARGOS 3.4 14:52:37 10° S 14:57:33 66° SW 14:57:33 66° SW
MOS 1 Rocket 4.4 15:01:55 41° WSW 15:01:55 41° WSW 15:06:07 10° SSW
Cosmos 2233 Rocket 4.4 15:08:39 54° WNW 15:09:27 58° W 15:15:41 10° S
Cosmos 1697 Rocket 3.2 15:06:20 10° SSW 15:10:49 55° SW 15:10:49 55° SW
SL-16 R/B 4.2 15:19:06 10° S 15:21:40 19° SSE 15:21:40 19° SSE
CZ-2C R/B 4.1 15:18:57 10° S 15:22:58 45° SSW 15:22:58 45° SSW
USA 215 4.1 15:32:14 10° SSE 15:38:27 45° SW 15:44:39 10° WNW
Resurs 01 Rocket 4.2 15:42:56 10° S 15:44:27 19° SSW 15:44:27 19° SSW
Cosmos 2322 Rocket 4.1 15:46:29 10° S 15:49:00 22° SSE 15:49:00 22° SSE
SJ 16-02 4.3 15:54:49 14° SSW 15:54:49 14° SSW 15:55:38 10° S
Mayak 1.8 15:56:50 14° SSW 15:56:50 14° SSW 15:57:24 10° SSW
Cosmos 1980 Rocket 4.0 15:59:13 10° SSW 16:01:51 27° SW 16:01:51 27° SW
USA 267 4.2 16:11:23 43° S 16:11:23 43° S 16:16:14 10° SW
ATLAS 2AS CENTAUR R/B 4.2 16:16:32 10° SSW 16:20:39 27° SSE 16:20:39 27° SSE
CZ-3B R/B 4.2 17:30:22 10° NW 18:07:54 67° SSE 18:12:17 10° SE
Cosmos 2227 Rocket 4.5 18:22:07 19° SE 18:22:07 19° SE 18:23:43 10° SE
Cosmos 2297 Rocket 4.4 18:26:36 21° SE 18:26:36 21° SE 18:28:25 10° SSE
CZ-2D R/B 4.3 18:53:01 20° SSW 18:53:01 20° SSW 18:54:36 10° SSW
Cosmos 2237 Rocket 4.3 19:01:48 10° SSW 19:03:23 19° SSW 19:03:23 19° SSW
ARIANE 5 R/B 4.3 19:21:45 29° S 19:21:45 29° S 19:24:20 10° S
Cosmos 2263 Rocket 4.4 19:26:27 16° E 19:26:39 16° E 19:29:56 10° ESE
ADEOS II 3.7 20:01:42 24° SSW 20:01:42 24° SSW 20:03:52 10° SSW
Cosmos 2227 Rocket 3.9 20:03:55 22° SW 20:03:55 22° SW 20:07:07 10° S
SL-16 R/B 3.0 19:57:46 10° SSW 20:01:35 44° SSW 20:01:35 44° SSW
Cosmos 2297 Rocket 4.0 20:08:23 20° SW 20:08:23 20° SW 20:11:28 10° S
GEOS 3 Rocket 3.8 20:08:15 10° SSE 20:12:54 67° S 20:12:54 67° S
Cosmos 2227 4.3 20:15:03 67° ENE 20:15:13 67° ENE 20:20:55 10° SSE
Cosmos 1607 3.8 20:19:46 77° NNW 20:20:16 88° ENE 20:26:45 10° SSE
FALCON 9 R/B 3.8 20:25:48 12° ENE 20:25:48 12° ENE 20:26:08 10° ENE
IDEFIX/ARIANE 42P 3.2 20:20:39 28° NE 20:23:12 52° ESE 20:28:19 10° S
Cosmos 2315 Rocket 4.2 20:24:22 55° WSW 20:24:22 55° WSW 20:30:24 10° S
MOZ.5/SAFIR/RUBIN 5/SL-8 4.0 20:21:40 10° SSE 20:25:44 65° S 20:25:44 65° S
Meteor 2-9 Rocket 4.4 20:29:46 59° WSW 20:29:46 59° WSW 20:35:24 10° S
PSLV R/B 4.4 20:29:19 41° ENE 20:30:10 48° ESE 20:34:21 10° S
OAO 2 Rocket 3.4 20:31:21 68° ENE 20:31:21 68° ENE 20:35:55 10° E
SL-16 R/B 2.4 20:30:41 10° SSE 20:36:58 87° WSW 20:38:37 53° NNW
ATLAS 5 CENTAUR R/B 3.2 20:36:05 33° N 20:39:05 54° ENE 20:45:39 10° SE
Cosmos 371 Rocket 4.4 20:39:48 29° NNE 20:41:36 41° ENE 20:46:14 10° SSE
UNK 4.0 20:43:02 10° S 20:47:22 53° WSW 20:47:22 53° WSW
Cosmos 405 Rocket 2.8 20:53:16 66° SSW 20:53:16 66° SSW 20:56:38 10° S
Sakura Rocket 4.2 20:56:46 28° NNE 20:56:46 28° NNE 20:59:23 10° ENE
Meteor 2-15 4.4 20:57:56 42° NW 20:59:55 63° W 21:06:03 10° S
CZ-4B R/B 4.1 20:58:39 10° SE 21:01:12 19° E 21:03:42 10° NE
Cosmos 2154 Rocket 4.4 20:57:44 10° S 21:04:01 63° E 21:10:11 10° NNE
Cosmos 1741 Rocket 3.9 20:59:29 10° SSW 21:04:50 80° WNW 21:10:08 10° NNE
SL-08 R/B 3.4 21:00:38 10° SSE 21:05:32 76° ENE 21:08:03 28° N
Landsat 5 4.2 21:02:01 10° SSE 21:06:08 53° E 21:08:54 20° N
Cosmos 389 Rocket 4.1 21:05:37 10° SSW 21:07:14 23° SW 21:07:14 23° SW
MSX 3.7 21:03:29 10° NNE 21:09:15 83° WNW 21:15:08 10° SSW
Cosmos 2263 Rocket 2.3 21:08:09 40° NW 21:09:57 59° WSW 21:15:33 10° SSE
DNEPR-1 R/B 3.6 21:09:10 49° WNW 21:10:14 68° WSW 21:14:28 10° SSE
Meteor 1-4 Rocket 2.4 21:06:36 10° SSW 21:10:21 70° W 21:10:35 67° NW
Cosmos 2184 Rocket 3.9 21:06:43 10° SSW 21:12:54 66° W 21:18:47 11° N
PAYLOAD A 4.2 21:08:10 10° NNE 21:13:34 82° ESE 21:19:06 10° S
H-2A R/B 2.5 21:09:42 13° N 21:13:48 81° WNW 21:18:22 10° SSW
ADEOS 3.8 21:13:47 33° NNW 21:15:37 46° W 21:20:42 10° SSW
Meteor 2-15 Rocket 4.5 21:12:49 30° NNW 21:15:45 58° W 21:21:51 10° S
H-2A R/B 2.3 21:12:03 10° S 21:16:02 44° WSW 21:16:34 41° W
Geosat 4.4 21:11:26 10° SSE 21:16:28 60° ENE 21:20:14 17° N
CZ-4B R/B 3.8 21:16:40 10° NNE 21:20:08 45° ESE 21:23:44 10° S
CZ-2C R/B 2.5 21:16:20 10° NNE 21:21:11 75° ESE 21:25:56 10° S
Okean 1-7 Rocket 3.9 21:18:04 10° S 21:22:31 68° E 21:26:54 10° NNE
Cosmos 1437 Rocket 3.0 21:21:55 10° S 21:25:56 70° E 21:29:49 10° NNE
SeaSat 1 4.5 21:23:02 10° ENE 21:27:21 31° ESE 21:31:41 10° S
Lacrosse 5 rocket 3.7 21:24:06 10° SSW 21:28:01 27° SE 21:31:46 10° E
Cosmos 2341 Rocket 4.5 21:28:40 10° S 21:35:05 65° E 21:41:21 10° NNE
Cosmos 332 Rocket 3.8 21:34:55 21° NNW 21:38:04 62° WSW 21:42:56 10° S
Cosmos 1689 Rocket 3.8 21:39:51 10° SSE 21:42:44 35° E 21:45:34 10° NNE
Cosmos 2084 3.4 21:40:46 24° NW 21:43:05 62° SW 21:47:20 10° SSE
Iridium 96 4.5 21:40:20 10° N 21:43:29 75° E 21:46:59 10° S
Meteor PRIRODA 4.3 21:40:05 10° NNE 21:43:43 58° ESE 21:47:23 10° S
Cosmos 1603 4.0 21:42:13 10° SW 21:47:30 41° WNW 21:52:42 10° N
Cosmos 1707 4.1 21:46:40 10° SW 21:49:37 20° W 21:50:10 20° W
Shenzhou-11 Module 4.1 21:48:05 10° SW 21:50:13 19° S 21:52:20 10° SE
Cosmos 1184 Rocket 2.8 21:48:53 15° NNW 21:51:25 59° W 21:54:42 10° S
Cosmos 1674 2.7 21:50:48 10° S 21:54:39 87° E 21:58:25 10° N
OAO 3 Rocket 3.1 21:51:24 17° W 21:55:04 80° N 21:59:51 10° E
Meteor 1-24 Rocket 4.0 21:50:53 10° S 21:56:18 70° E 22:01:48 10° NNE
ATLAS CENTAUR R/B 2.1 21:58:34 21° WNW 21:58:53 21° NW 22:01:27 10° N
ALOS 4.0 21:55:15 10° NE 21:59:35 38° ESE 22:03:57 10° S
IDEFIX/ARIANE 42P 4.0 22:01:26 14° WNW 22:03:04 16° W 22:06:15 10° SW
Cosmos 1844 Rocket 2.8 21:59:37 10° NNW 22:05:12 81° ENE 22:10:53 10° SSE
CZ-4B R/B 4.2 22:00:56 10° NE 22:06:11 52° ESE 22:11:36 10° S
Cosmos 304 Rocket 3.9 22:02:52 10° NNW 22:07:37 60° WSW 22:12:27 10° S
Abrixas rocket 2.8 22:06:53 15° W 22:09:11 40° SSW 22:12:07 10° SE
Cosmos 1626 4.3 22:06:23 10° SSE 22:09:47 31° ESE 22:13:08 10° NE
Cosmos 1733 3.1 22:06:00 10° NNW 22:09:47 67° W 22:13:38 10° S
PAYLOAD B 4.4 22:06:16 10° NNE 22:11:46 80° ESE 22:17:21 10° S
SL-4 R/B 2.3 22:08:03 10° SW 22:12:20 81° SE 22:16:56 10° NE
Cosmos 1892 Rocket 4.5 22:09:33 10° SSW 22:13:31 30° W 22:17:25 10° NNW
OAO 2 Rocket 3.4 22:10:29 10° W 22:15:35 72° N 22:20:36 10° ENE
SJ-12 4.1 22:12:55 10° NNE 22:17:06 81° ESE 22:21:19 10° S
FENGYUN 3A 4.3 22:12:42 10° NNE 22:18:03 63° ESE 22:23:28 10° S
Cosmos 1943 3.9 22:13:37 10° SW 22:18:34 31° WNW 22:23:29 10° NNW
Cosmos 1766 4.3 22:15:49 10° NW 22:19:19 28° WSW 22:22:52 10° SSW
SL-16 R/B 4.3 22:17:04 10° SSW 22:19:38 13° WSW 22:22:11 10° W
Cosmos 1805 4.3 22:17:07 10° NW 22:20:30 27° WSW 22:23:56 10° SSW
PSLV R/B 4.1 22:19:54 10° N 22:23:37 45° W 22:27:28 10° SSW
ATLAS 5 CENTAUR R/B 3.6 22:17:55 10° WNW 22:24:09 32° SW 22:29:58 10° SSE
Cosmos 1455 Rocket 4.4 22:20:57 10° NW 22:24:20 22° WSW 22:27:46 10° SSW
Meteor 1-28 Rocket 3.8 22:20:50 10° S 22:24:27 40° WSW 22:28:02 10° NW
USA 215 4.0 22:18:13 10° ENE 22:24:38 59° SE 22:31:06 10° SW
CZ-4C R/B 1.9 22:20:50 10° SSW 22:26:15 88° WNW 22:30:57 10° NNE
Cosmos 968 Rocket 4.4 22:26:00 10° S 22:31:06 56° ESE 22:36:09 10° NNE
